Content
SEND FEEDBACK

Daily
Averages
Monthly
Summary
United States of America

UPI, GUAM


Home > North America > United States > Guam
Elevation: 53 feet     Latitude: 13 34N     Longitude: 144 55E

WEATHER
 
SELECT A DAY
Number of Records: 209,165;   Date Range: 1/1/95 - 8/30/14
 
SHARE

PRINT THIS DATA

[ ← Previous Day ]
WEATHER ALMANAC - FEBRUARY 10, 2013
[ Next Day → ]
[ °C ]   °F
Weather ElementAverageHighLow
Temperature80.2 °F86 °F (2:54 pm)75 °F (11:54 pm)
Dewpoint72.9 °F75 °F (1:54 am)68 °F (3:54 pm)
Humidity79.1 %96 % (11:54 pm)55 % (3:54 pm)
Barometer29.89 in29.96 in (9:01 am)29.84 in (2:54 pm)
Wind Speed11.6 mph16.1 mph (9:54 am)
Wind Gust20.7 mph (8:54 am)
Weather ElementAverage
Visibility9.9 mi
Wind DirectionENE (77.2 °)

Weather ElementTotal
Precipitation0.06 in
Cooling Degree Days15.5 (Base 65)
Growing Degree Days30.5 (Base 50)
Averaged from 25 records on February 10, 2013
WEATHER CONDITIONS BREAKOUT
WIND DIRECTION BREAKOUT
WEATHER BY HOUR - FEBRUARY 10, 2013
[ °C ]   °F
Local TimeTemperatureDewpointHumidityBarometerVisibilityWind DirectionWind SpeedGust SpeedPrecipitationEventsConditions
1:54 AM77.0 °F75.0 °F94 %29.88 in10.0 miNE (50°)8.1 mph0.00 inRainLight Rain
2:54 AM78.1 °F75.0 °F90 %29.87 in10.0 miENE (70°)9.2 mphScattered Clouds
3:54 AM77.0 °F73.9 °F90 %29.86 in10.0 miENE (60°)6.9 mphScattered Clouds
4:54 AM77.0 °F73.9 °F90 %29.86 in10.0 miENE (70°)6.9 mph0.00 inPartly Cloudy
5:54 AM77.0 °F73.9 °F90 %29.88 in10.0 miENE (70°)5.8 mphPartly Cloudy
6:54 AM77.0 °F73.9 °F90 %29.90 in10.0 miEast (80°)5.8 mphClear
7:54 AM79.0 °F73.9 °F84 %29.92 in10.0 miEast (80°)11.5 mph16.1 mphPartly Cloudy
8:14 AM80.6 °F73.4 °F79 %29.94 in10.0 miENE (70°)11.5 mphPartly Cloudy
8:54 AM81.0 °F73.0 °F77 %29.94 in10.0 miEast (90°)15.0 mph20.7 mphScattered Clouds
9:01 AM80.6 °F73.4 °F79 %29.96 in10.0 miEast (90°)15.0 mphPartly Cloudy
9:54 AM82.0 °F72.0 °F71 %29.94 in10.0 miEast (90°)16.1 mphScattered Clouds
10:54 AM82.9 °F72.0 °F69 %29.93 in10.0 miEast (90°)15.0 mphPartly Cloudy
11:54 AM84.0 °F71.1 °F65 %29.90 in10.0 miENE (70°)13.8 mphScattered Clouds
12:54 PM84.9 °F70.0 °F61 %29.88 in10.0 miEast (100°)13.8 mphPartly Cloudy
1:54 PM84.0 °F72.0 °F67 %29.86 in10.0 miEast (90°)13.8 mphScattered Clouds
2:54 PM86.0 °F71.1 °F61 %29.84 in10.0 miENE (70°)16.1 mphScattered Clouds
3:54 PM86.0 °F68.0 °F55 %29.84 in10.0 miEast (90°)13.8 mphScattered Clouds
4:54 PM82.9 °F73.0 °F72 %29.85 in10.0 miEast (80°)12.7 mphScattered Clouds
5:54 PM81.0 °F72.0 °F74 %29.86 in10.0 miEast (80°)12.7 mphClear
6:54 PM80.1 °F73.0 °F79 %29.87 in10.0 miEast (80°)11.5 mph19.6 mphPartly Cloudy
7:54 PM79.0 °F75.0 °F88 %29.89 in8.0 miEast (80°)8.1 mph0.00 inScattered Clouds
8:54 PM78.1 °F73.0 °F84 %29.89 in10.0 miEast (80°)11.5 mphPartly Cloudy
9:54 PM79.0 °F73.0 °F82 %29.90 in10.0 miEast (80°)12.7 mphPartly Cloudy
10:54 PM77.0 °F73.9 °F90 %29.91 in10.0 miNE (50°)15.0 mph0.00 inRainLight Rain
11:54 PM75.0 °F73.9 °F96 %29.91 in10.0 miENE (70°)6.9 mph0.06 inMostly Cloudy
Hourly data recorded from PGUM, located miles away from Upi, Guam







STORIES FROM OUR PARTNERS